Location: Unspecified
(57.6483°N, 3.3184°W)
Time: 10:20:26
(UTC+00:00)

BlueWalker 3 - Pass Details

Date: 25 January 2026
Orbit: 450 x 461 km, 53.2° (Epoch: 11 February)

Event Time Altitude Azimuth Distance (km) Brightness Sun altitude
Rises 19:48:44 0° 247° (WSW) 2,455 6.3 -26.9°
Reaches altitude 10° 19:50:57 10° 239° (WSW) 1,583 5.1 -27.2°
Enters shadow 19:52:05 18° 230° (SW) 1,174 4.2 -27.3°
